Location: Cactus School
(34.5700°N, 118.0931°W)
Time: 02:01:52
(UTC-07:00)

Courier 1B - Pass Details

Date: 28 April 2024
Orbit: 962 x 1208 km, 28.3° (Epoch: 23 May)

Event Time Altitude Azimuth Distance (km) Brightness Sun altitude
Exits shadow 03:16:48 29° 143° (SE) 1,916 8.9 -29.9°
Drops below altitude 10° 03:20:26 10° 124° (SE) 2,940 10.1 -29.4°
Sets 03:23:14 0° 118° (ESE) 3,858 10.8 -29.0°
